Regional Weather Roundup
Issued by NWS Cleveland, OH

Home | Current Version | Previous Version | Graphics & Text | Print | Product List | Glossary On
Versions: 1 2 3 4 5 6 7 8 9 10 11 12 13 14 15 16 17 18 19 20 21 22 23 24 25 26 27 28 29 30 31 32 33 34 35 36 37 38 39 40 41 42 43 44 45 46 47 48 49 50
000
ASUS41 KCLE 130702
RWRCLE
OHIO REGIONAL WEATHER ROUNDUP
NATIONAL WEATHER SERVICE CLEVELAND, OH
300 AM EDT SUN JUL 13 2014

NOTE: "FAIR" INDICATES FEW OR NO CLOUDS BELOW 12,000 FEET WITH NO
SIGNIFICANT WEATHER AND/OR OBSTRUCTIONS TO VISIBILITY.

OHZ001>008-015>018-024>027-034-035-043-044-130800-
   NORTHWEST OHIO

CITY           SKY/WX    TMP DP  RH WIND       PRES   REMARKS
DEFIANCE       CLOUDY    75  69  81 S9        29.90F
FINDLAY        CLOUDY    77  68  73 SW13      29.93F
TOLEDO EXPRESS LGT RAIN  74  69  85 SW8       29.90F
TOLEDO EXEC    CLOUDY    76  68  76 S9        29.91F
LIMA           CLOUDY    77  69  76 SW15      29.96F
$$

OHZ009>014-019>023-028>033-038-089-130800-
   NORTHEAST OHIO

CITY           SKY/WX    TMP DP  RH WIND       PRES   REMARKS
CLE-HOPKINS    CLOUDY    74  66  76 S10       29.96F
CLE-LAKEFRONT  CLOUDY    75  67  76 S10       29.92F
CUY CO. ARPT   NOT AVBL
LORAIN-ELYRIA  CLOUDY    78  66  66 SW12      29.95F
ASHTABULA      PTCLDY    73  61  65 S9        29.97F
AKRON-CANTON   CLOUDY    74  63  68 SW8       30.01F
WOOSTER        MOCLDY    73  65  75 SW6       30.00F
MANSFIELD      MOCLDY    74  66  76 S8        30.00F
YOUNGSTOWN     CLOUDY    72  62  71 S6        30.01F
$$

OHZ042-051>053-060>062-070>072-077>081-130800-
  SOUTHWEST OHIO

CITY           SKY/WX    TMP DP  RH WIND       PRES   REMARKS
CINC-COVINGTON CLOUDY    75  67  76 S8        30.02F
CINC-LUNKEN    CLOUDY    73  69  87 SW3       30.01F
HAMILTON       CLOUDY    77  68  73 SW3       30.01F
DAYTON         CLOUDY    76  68  76 SW10      30.01F
WRIGHT-PAT AFB NOT AVBL
DAYTON GENERAL CLOUDY    74  68  81 S8        30.01F
WILMINGTON     CLOUDY    73  66  78 S7        30.02F
$$

OHZ036-037-039>041-045>050-054>059-063>069-073>076-082>088-130800-
  CENTRAL AND SOUTHEAST OHIO

CITY           SKY/WX    TMP DP  RH WIND       PRES   REMARKS
COLUMBUS       CLOUDY    78  65  63 S7        30.01F
OSU AIRPORT    MOCLDY    76  66  71 SW7       30.01F
BOLTON FIELD   MOCLDY    73  68  83 S7        30.02S
RICKENBACK AFB MOCLDY    76  64  65 S7        30.01F
NEWARK         CLOUDY    73  66  78 SW5       30.01F
MARION         MOCLDY    75  67  76 S12       29.98F
LANCASTER      MOCLDY    76  65  68 S5        30.02F
ZANESVILLE     CLOUDY    72  65  78 S6        30.02F
NEW PHILLY     MOCLDY    69  65  86 SE3       30.02F
$$



USA.gov is the U.S. government's official web portal to all federal, state and local government web resources and services.